Back to catalog

STARLINK-1464

AliveCommunicationsVLEO
NORAD 45751·PAYLOAD·🇺🇸 United States

Launched Jun 13, 2020 from Cape Canaveral Space Force Station

Loading…

Next Passes (next 24 hours)

TLE

FreshSource: CelesTrak SupGP

Epoch: Sep 14, 2026, 14:42 UTC

1 45751C 20038X   26257.61298611  .00040153  00000+0  30239-3 0  2570
2 45751  53.0437  12.2177 0001588  64.5756 248.0416 15.71825109    16

Track STARLINK-1464 in real time with AllMySat

Download on the App Store